Time,TemperatureF,DewpointF,PressureIn,WindDirection,WindDirectionDegrees,WindSpeedMPH,WindSpeedGustMPH,Humidity,HourlyPrecipIn,Conditions,Clouds,dailyrainin,SoftwareType,DateUTC
2013-01-11 00:03:00,63.6,61.5,30.06,SSW,208,0.0,2.0,93,0.00,,---,0.00,VWS V14.01,2013-01-11 06:03:00,
2013-01-11 00:08:00,63.7,61.6,30.06,SSW,199,0.0,4.0,93,0.00,,---,0.00,VWS V14.01,2013-01-11 06:08:00,
2013-01-11 00:13:00,63.8,61.7,30.05,SSW,196,0.0,4.0,93,0.00,,---,0.00,VWS V14.01,2013-01-11 06:13:00,
2013-01-11 00:18:00,63.9,61.8,30.05,South,191,2.0,4.0,93,0.00,,---,0.00,VWS V14.01,2013-01-11 06:18:00,
2013-01-11 00:23:00,63.9,62.1,30.05,South,191,2.0,4.0,94,0.00,,---,0.00,VWS V14.01,2013-01-11 06:23:00,
2013-01-11 00:28:00,64.0,62.2,30.05,South,191,0.0,4.0,94,0.00,,---,0.00,VWS V14.01,2013-01-11 06:28:00,
2013-01-11 00:33:00,64.0,62.2,30.05,South,191,0.0,3.0,94,0.00,,---,0.00,VWS V14.01,2013-01-11 06:33:00,
2013-01-11 00:38:00,64.1,62.3,30.05,South,191,1.0,3.0,94,0.00,,---,0.00,VWS V14.01,2013-01-11 06:38:00,
2013-01-11 00:43:00,64.2,62.4,30.05,South,191,0.0,3.0,94,0.00,,---,0.00,VWS V14.01,2013-01-11 06:43:00,
2013-01-11 00:48:00,64.3,62.5,30.05,SSW,193,2.0,6.0,94,0.00,,---,0.00,VWS V14.01,2013-01-11 06:48:00,
2013-01-11 00:53:00,64.4,62.6,30.04,South,169,3.0,6.0,94,0.00,,---,0.00,VWS V14.01,2013-01-11 06:53:00,
2013-01-11 00:58:00,64.5,62.7,30.05,South,184,2.0,6.0,94,0.00,,---,0.00,VWS V14.01,2013-01-11 06:58:00,
2013-01-11 01:03:00,64.4,62.6,30.05,South,185,0.0,5.0,94,0.00,,---,0.00,VWS V14.01,2013-01-11 07:03:00,
2013-01-11 01:08:00,64.3,62.5,30.05,South,186,3.0,6.0,94,0.00,,---,0.00,VWS V14.01,2013-01-11 07:08:00,
2013-01-11 01:13:00,64.3,62.5,30.05,South,180,4.0,6.0,94,0.00,,---,0.00,VWS V14.01,2013-01-11 07:13:00,
2013-01-11 01:18:00,64.2,62.4,30.04,SSW,194,5.0,7.0,94,0.00,,---,0.00,VWS V14.01,2013-01-11 07:18:00,
2013-01-11 01:23:00,64.2,62.4,30.04,South,185,2.0,7.0,94,0.00,,---,0.00,VWS V14.01,2013-01-11 07:23:00,
2013-01-11 01:28:00,64.2,62.7,30.04,South,174,0.0,7.0,95,0.00,,---,0.00,VWS V14.01,2013-01-11 07:28:00,
2013-01-11 01:33:00,64.3,62.8,30.04,South,181,5.0,7.0,95,0.00,,---,0.00,VWS V14.01,2013-01-11 07:33:00,
2013-01-11 01:38:00,64.5,63.0,30.03,South,172,5.0,7.0,95,0.00,,---,0.00,VWS V14.01,2013-01-11 07:38:00,
2013-01-11 01:43:00,64.6,63.1,30.03,SSW,192,2.0,8.0,95,0.00,,---,0.00,VWS V14.01,2013-01-11 07:43:00,
2013-01-11 01:48:00,64.8,63.3,30.04,South,175,4.0,8.0,95,0.00,,---,0.00,VWS V14.01,2013-01-11 07:48:00,
2013-01-11 01:53:00,64.9,63.4,30.03,SSE,153,5.0,8.0,95,0.00,,---,0.00,VWS V14.01,2013-01-11 07:53:00,
2013-01-11 01:58:00,64.9,63.4,30.03,South,187,4.0,8.0,95,0.00,,---,0.00,VWS V14.01,2013-01-11 07:58:00,
2013-01-11 02:03:00,64.9,63.4,30.03,South,174,3.0,6.0,95,0.00,,---,0.00,VWS V14.01,2013-01-11 08:03:00,
2013-01-11 02:08:00,64.9,63.4,30.02,South,188,3.0,6.0,95,0.00,,---,0.00,VWS V14.01,2013-01-11 08:08:00,
2013-01-11 02:13:00,65.0,63.5,30.01,South,174,3.0,6.0,95,0.00,,---,0.00,VWS V14.01,2013-01-11 08:13:00,
2013-01-11 02:18:00,65.0,63.5,30.01,South,169,6.0,7.0,95,0.00,,---,0.00,VWS V14.01,2013-01-11 08:18:00,
2013-01-11 02:23:00,65.0,63.5,30.01,SSW,199,4.0,7.0,95,0.00,,---,0.00,VWS V14.01,2013-01-11 08:23:00,
2013-01-11 02:28:00,65.0,63.5,30.02,SSW,192,3.0,7.0,95,0.00,,---,0.00,VWS V14.01,2013-01-11 08:28:00,
2013-01-11 02:33:00,65.0,63.5,30.01,SSW,194,4.0,7.0,95,0.00,,---,0.00,VWS V14.01,2013-01-11 08:33:00,
2013-01-11 02:38:00,65.0,63.5,30.01,South,169,4.0,7.0,95,0.00,,---,0.00,VWS V14.01,2013-01-11 08:38:00,
2013-01-11 02:43:00,65.0,63.5,30.01,South,179,2.0,7.0,95,0.00,,---,0.00,VWS V14.01,2013-01-11 08:43:00,
2013-01-11 02:48:00,65.0,63.5,30.01,South,189,3.0,7.0,95,0.00,,---,0.00,VWS V14.01,2013-01-11 08:48:00,
2013-01-11 02:53:00,65.0,63.5,30.01,South,183,2.0,8.0,95,0.00,,---,0.00,VWS V14.01,2013-01-11 08:53:00,
2013-01-11 02:58:00,65.0,63.5,30.01,SSW,194,4.0,8.0,95,0.00,,---,0.00,VWS V14.01,2013-01-11 08:58:00,
2013-01-11 03:03:00,65.0,63.5,30.01,SSW,194,4.0,11.0,95,0.00,,---,0.00,VWS V14.01,2013-01-11 09:03:00,
2013-01-11 03:08:00,65.1,63.6,30.01,SSW,211,2.0,11.0,95,0.00,,---,0.00,VWS V14.01,2013-01-11 09:08:00,
2013-01-11 03:13:00,65.2,63.7,30.01,South,177,2.0,11.0,95,0.00,,---,0.00,VWS V14.01,2013-01-11 09:13:00,
2013-01-11 03:18:00,65.2,63.7,30.00,South,183,6.0,12.0,95,0.00,,---,0.00,VWS V14.01,2013-01-11 09:18:00,
2013-01-11 03:23:00,65.2,63.7,30.00,South,176,3.0,12.0,95,0.00,,---,0.00,VWS V14.01,2013-01-11 09:23:00,
2013-01-11 03:28:00,65.2,63.7,30.00,SSW,207,3.0,12.0,95,0.00,,---,0.00,VWS V14.01,2013-01-11 09:28:00,
2013-01-11 03:33:00,65.2,63.7,30.00,South,180,1.0,6.0,95,0.00,,---,0.00,VWS V14.01,2013-01-11 09:33:00,
2013-01-11 03:38:00,65.2,63.7,30.00,South,178,2.0,6.0,95,0.00,,---,0.00,VWS V14.01,2013-01-11 09:38:00,
2013-01-11 03:43:00,65.1,63.6,30.00,South,183,2.0,6.0,95,0.00,,---,0.00,VWS V14.01,2013-01-11 09:43:00,
2013-01-11 03:48:00,65.1,63.3,30.00,South,183,0.0,6.0,94,0.00,,---,0.00,VWS V14.01,2013-01-11 09:48:00,
2013-01-11 03:53:00,65.0,63.5,30.00,South,184,0.0,6.0,95,0.00,,---,0.00,VWS V14.01,2013-01-11 09:53:00,
2013-01-11 03:58:00,65.0,63.5,30.00,South,189,4.0,6.0,95,0.00,,---,0.00,VWS V14.01,2013-01-11 09:58:00,
2013-01-11 04:03:00,65.0,63.5,30.00,South,190,0.0,5.0,95,0.00,,---,0.00,VWS V14.01,2013-01-11 10:03:00,
2013-01-11 04:08:00,65.0,63.5,30.00,South,190,0.0,5.0,95,0.00,,---,0.00,VWS V14.01,2013-01-11 10:08:00,
2013-01-11 04:13:00,65.0,63.5,30.00,South,190,0.0,5.0,95,0.00,,---,0.00,VWS V14.01,2013-01-11 10:13:00,
2013-01-11 04:18:00,64.9,63.4,30.01,South,190,0.0,5.0,95,0.00,,---,0.00,VWS V14.01,2013-01-11 10:18:00,
2013-01-11 04:23:00,64.9,63.4,30.00,South,182,3.0,5.0,95,0.00,,---,0.00,VWS V14.01,2013-01-11 10:23:00,
2013-01-11 04:28:00,64.9,63.4,30.00,South,173,1.0,5.0,95,0.00,,---,0.00,VWS V14.01,2013-01-11 10:28:00,
2013-01-11 04:33:00,64.9,63.4,30.01,South,180,0.0,5.0,95,0.00,,---,0.00,VWS V14.01,2013-01-11 10:33:00,
2013-01-11 04:38:00,64.9,63.4,30.01,South,180,0.0,5.0,95,0.00,,---,0.00,VWS V14.01,2013-01-11 10:38:00,
2013-01-11 04:43:00,64.9,63.4,30.01,South,180,0.0,5.0,95,0.00,,---,0.00,VWS V14.01,2013-01-11 10:43:00,
2013-01-11 04:48:00,64.9,63.4,30.01,South,174,3.0,5.0,95,0.00,,---,0.00,VWS V14.01,2013-01-11 10:48:00,
2013-01-11 04:53:00,64.9,63.4,30.01,South,169,0.0,5.0,95,0.00,,---,0.00,VWS V14.01,2013-01-11 10:53:00,
2013-01-11 04:58:00,65.0,63.5,30.01,South,180,2.0,5.0,95,0.00,,---,0.00,VWS V14.01,2013-01-11 10:58:00,
2013-01-11 05:03:00,65.0,63.5,30.01,South,171,1.0,6.0,95,0.00,,---,0.00,VWS V14.01,2013-01-11 11:03:00,
2013-01-11 05:08:00,65.0,63.5,30.01,South,179,4.0,7.0,95,0.00,,---,0.00,VWS V14.01,2013-01-11 11:08:00,
2013-01-11 05:13:00,65.1,63.6,30.01,SSW,208,2.0,7.0,95,0.00,,---,0.00,VWS V14.01,2013-01-11 11:13:00,
2013-01-11 05:18:00,65.1,63.6,30.01,SSW,205,1.0,7.0,95,0.00,,---,0.00,VWS V14.01,2013-01-11 11:18:00,
2013-01-11 05:23:00,65.2,63.7,30.01,South,178,4.0,7.0,95,0.00,,---,0.00,VWS V14.01,2013-01-11 11:23:00,
2013-01-11 05:28:00,65.2,63.7,30.01,South,177,2.0,7.0,95,0.00,,---,0.00,VWS V14.01,2013-01-11 11:28:00,
2013-01-11 05:33:00,65.3,63.8,30.02,South,184,3.0,6.0,95,0.00,,---,0.00,VWS V14.01,2013-01-11 11:33:00,
2013-01-11 05:38:00,65.2,63.7,30.02,South,190,0.0,6.0,95,0.00,,---,0.00,VWS V14.01,2013-01-11 11:38:00,
2013-01-11 05:43:00,65.2,63.7,30.02,SW,225,3.0,7.0,95,0.00,,---,0.00,VWS V14.01,2013-01-11 11:43:00,
2013-01-11 05:48:00,65.2,63.7,30.02,South,188,4.0,7.0,95,0.00,,---,0.00,VWS V14.01,2013-01-11 11:48:00,
2013-01-11 05:53:00,65.1,63.6,30.02,South,182,8.0,8.0,95,0.00,,---,0.00,VWS V14.01,2013-01-11 11:53:00,
2013-01-11 05:58:00,65.1,63.6,30.02,South,183,5.0,9.0,95,0.00,,---,0.00,VWS V14.01,2013-01-11 11:58:00,
2013-01-11 06:03:00,65.2,63.7,30.03,SSW,200,4.0,7.0,95,0.00,,---,0.00,VWS V14.01,2013-01-11 12:03:00,
2013-01-11 06:08:00,65.2,63.7,30.03,SSW,205,5.0,7.0,95,0.00,,---,0.00,VWS V14.01,2013-01-11 12:08:00,
2013-01-11 06:13:00,65.4,63.9,30.03,SSW,211,4.0,13.0,95,0.00,,---,0.00,VWS V14.01,2013-01-11 12:13:00,
2013-01-11 06:18:00,65.6,64.1,30.04,SSW,211,3.0,13.0,95,0.00,,---,0.00,VWS V14.01,2013-01-11 12:18:00,
2013-01-11 06:23:00,65.8,64.3,30.04,SSW,196,5.0,13.0,95,0.00,,---,0.00,VWS V14.01,2013-01-11 12:23:00,
2013-01-11 06:28:00,66.1,64.3,30.04,SSW,200,9.0,13.0,94,0.00,,---,0.00,VWS V14.01,2013-01-11 12:28:00,
2013-01-11 06:33:00,66.3,64.5,30.04,South,178,4.0,10.0,94,0.00,,---,0.00,VWS V14.01,2013-01-11 12:33:00,
2013-01-11 06:38:00,66.4,64.3,30.04,SSW,192,3.0,10.0,93,0.00,,---,0.00,VWS V14.01,2013-01-11 12:38:00,
2013-01-11 06:43:00,66.3,64.2,30.04,South,180,4.0,11.0,93,0.00,,---,0.00,VWS V14.01,2013-01-11 12:43:00,
2013-01-11 06:48:00,66.2,63.8,30.05,SW,220,3.0,14.0,92,0.00,,---,0.00,VWS V14.01,2013-01-11 12:48:00,
2013-01-11 06:53:00,66.2,64.1,30.04,SSW,200,2.0,14.0,93,0.00,,---,0.00,VWS V14.01,2013-01-11 12:53:00,
2013-01-11 06:58:00,66.2,64.1,30.04,SSW,204,3.0,14.0,93,0.00,,---,0.00,VWS V14.01,2013-01-11 12:58:00,
2013-01-11 07:03:00,66.5,64.4,30.04,SW,225,3.0,9.0,93,0.00,,---,0.00,VWS V14.01,2013-01-11 13:03:00,
2013-01-11 07:08:00,66.7,64.9,30.05,SW,223,0.0,9.0,94,0.00,,---,0.00,VWS V14.01,2013-01-11 13:08:00,
2013-01-11 07:13:00,67.0,64.9,30.05,SSW,200,3.0,16.0,93,0.00,,---,0.00,VWS V14.01,2013-01-11 13:13:00,
2013-01-11 07:18:00,67.3,65.5,30.05,SSW,192,2.0,16.0,94,0.00,,---,0.00,VWS V14.01,2013-01-11 13:18:00,
2013-01-11 07:23:00,67.5,65.4,30.05,SSW,203,6.0,16.0,93,0.00,,---,0.00,VWS V14.01,2013-01-11 13:23:00,
2013-01-11 07:28:00,67.7,65.6,30.05,SSW,213,1.0,16.0,93,0.00,,---,0.00,VWS V14.01,2013-01-11 13:28:00,
2013-01-11 07:33:00,67.7,65.6,30.05,SSW,197,0.0,7.0,93,0.00,,---,0.00,VWS V14.01,2013-01-11 13:33:00,
2013-01-11 07:38:00,67.8,65.7,30.05,SSW,200,5.0,7.0,93,0.00,,---,0.00,VWS V14.01,2013-01-11 13:38:00,
2013-01-11 07:43:00,67.9,65.8,30.05,SSW,211,0.0,7.0,93,0.00,,---,0.00,VWS V14.01,2013-01-11 13:43:00,
2013-01-11 07:48:00,67.9,65.8,30.05,SSW,202,5.0,7.0,93,0.00,,---,0.00,VWS V14.01,2013-01-11 13:48:00,
2013-01-11 07:53:00,67.9,65.8,30.05,SSW,210,5.0,7.0,93,0.00,,---,0.00,VWS V14.01,2013-01-11 13:53:00,
2013-01-11 07:58:00,67.9,65.8,30.06,SSW,209,2.0,7.0,93,0.00,,---,0.00,VWS V14.01,2013-01-11 13:58:00,
2013-01-11 08:03:00,68.1,66.0,30.06,SSW,201,0.0,5.0,93,0.00,,---,0.00,VWS V14.01,2013-01-11 14:03:00,
2013-01-11 08:08:00,68.6,66.5,30.06,SSW,203,6.0,8.0,93,0.00,,---,0.00,VWS V14.01,2013-01-11 14:08:00,
2013-01-11 08:13:00,68.9,66.5,30.06,South,186,1.0,9.0,92,0.00,,---,0.00,VWS V14.01,2013-01-11 14:13:00,
2013-01-11 08:18:00,69.0,66.6,30.06,SW,223,0.0,9.0,92,0.00,,---,0.00,VWS V14.01,2013-01-11 14:18:00,
2013-01-11 08:23:00,69.2,66.8,30.06,South,178,3.0,10.0,92,0.00,,---,0.00,VWS V14.01,2013-01-11 14:23:00,
2013-01-11 08:28:00,69.4,67.0,30.06,South,189,3.0,10.0,92,0.00,,---,0.00,VWS V14.01,2013-01-11 14:28:00,
2013-01-11 08:33:00,69.5,67.1,30.07,SSW,213,0.0,5.0,92,0.00,,---,0.00,VWS V14.01,2013-01-11 14:33:00,
2013-01-11 08:38:00,69.5,66.8,30.07,WSW,241,0.0,5.0,91,0.00,,---,0.00,VWS V14.01,2013-01-11 14:38:00,
2013-01-11 08:43:00,69.5,66.8,30.07,SSW,207,1.0,10.0,91,0.00,,---,0.00,VWS V14.01,2013-01-11 14:43:00,
2013-01-11 08:48:00,69.6,67.2,30.07,SW,214,1.0,10.0,92,0.00,,---,0.00,VWS V14.01,2013-01-11 14:48:00,
2013-01-11 08:53:00,69.7,67.3,30.07,SSW,195,2.0,10.0,92,0.00,,---,0.00,VWS V14.01,2013-01-11 14:53:00,
2013-01-11 08:58:00,69.9,67.2,30.07,SSW,207,3.0,10.0,91,0.00,,---,0.00,VWS V14.01,2013-01-11 14:58:00,
2013-01-11 09:03:00,70.1,67.7,30.07,SSW,202,2.0,9.0,92,0.00,,---,0.00,VWS V14.01,2013-01-11 15:03:00,
2013-01-11 09:08:00,70.2,67.4,30.07,SSW,199,7.0,9.0,91,0.00,,---,0.00,VWS V14.01,2013-01-11 15:08:00,
2013-01-11 09:13:00,70.2,67.4,30.07,South,188,5.0,11.0,91,0.00,,---,0.00,VWS V14.01,2013-01-11 15:13:00,
2013-01-11 09:18:00,70.1,67.4,30.07,South,175,1.0,11.0,91,0.00,,---,0.00,VWS V14.01,2013-01-11 15:18:00,
2013-01-11 09:23:00,70.1,67.4,30.07,SSW,193,4.0,11.0,91,0.00,,---,0.00,VWS V14.01,2013-01-11 15:23:00,
2013-01-11 09:28:00,70.1,67.4,30.07,SSW,200,2.0,11.0,91,0.00,,---,0.00,VWS V14.01,2013-01-11 15:28:00,
2013-01-11 09:33:00,70.2,67.4,30.07,SSW,212,6.0,7.0,91,0.00,,---,0.00,VWS V14.01,2013-01-11 15:33:00,
2013-01-11 09:38:00,70.2,67.4,30.07,SSW,193,1.0,11.0,91,0.00,,---,0.00,VWS V14.01,2013-01-11 15:38:00,
2013-01-11 09:43:00,70.3,67.6,30.07,South,183,4.0,11.0,91,0.00,,---,0.00,VWS V14.01,2013-01-11 15:43:00,
2013-01-11 09:48:00,70.3,67.6,30.07,SSE,155,6.0,12.0,91,0.00,,---,0.00,VWS V14.01,2013-01-11 15:48:00,
2013-01-11 09:53:00,70.7,67.9,30.07,South,184,4.0,12.0,91,0.00,,---,0.00,VWS V14.01,2013-01-11 15:53:00,
2013-01-11 09:58:00,71.3,68.5,30.07,South,186,3.0,12.0,91,0.00,,---,0.00,VWS V14.01,2013-01-11 15:58:00,
2013-01-11 10:03:00,72.0,68.6,30.07,SE,140,2.0,12.0,89,0.00,,---,0.00,VWS V14.01,2013-01-11 16:03:00,
2013-01-11 10:08:00,72.5,68.8,30.07,SSW,207,7.0,12.0,88,0.00,,---,0.00,VWS V14.01,2013-01-11 16:08:00,
2013-01-11 10:13:00,72.7,68.6,30.07,SW,221,5.0,12.0,87,0.00,,---,0.00,VWS V14.01,2013-01-11 16:13:00,
2013-01-11 10:18:00,73.0,68.2,30.07,South,178,3.0,12.0,85,0.00,,---,0.00,VWS V14.01,2013-01-11 16:18:00,
2013-01-11 10:23:00,73.2,68.4,30.06,South,190,3.0,12.0,85,0.00,,---,0.00,VWS V14.01,2013-01-11 16:23:00,
2013-01-11 10:28:00,73.7,68.9,30.06,South,169,3.0,12.0,85,0.00,,---,0.00,VWS V14.01,2013-01-11 16:28:00,
2013-01-11 10:33:00,74.2,68.7,30.06,SSE,150,5.0,8.0,83,0.00,,---,0.00,VWS V14.01,2013-01-11 16:33:00,
2013-01-11 10:38:00,74.2,68.4,30.06,SW,216,9.0,14.0,82,0.00,,---,0.00,VWS V14.01,2013-01-11 16:38:00,
2013-01-11 10:43:00,74.0,68.5,30.06,South,173,5.0,14.0,83,0.00,,---,0.00,VWS V14.01,2013-01-11 16:43:00,
2013-01-11 10:48:00,74.1,68.6,30.06,South,185,7.0,14.0,83,0.00,,---,0.00,VWS V14.01,2013-01-11 16:48:00,
2013-01-11 10:53:00,74.3,68.8,30.06,SW,220,5.0,14.0,83,0.00,,---,0.00,VWS V14.01,2013-01-11 16:53:00,
2013-01-11 10:58:00,74.6,68.4,30.06,SSE,160,12.0,14.0,81,0.00,,---,0.00,VWS V14.01,2013-01-11 16:58:00,
2013-01-11 11:03:00,74.6,68.4,30.06,South,186,3.0,11.0,81,0.00,,---,0.00,VWS V14.01,2013-01-11 17:03:00,
2013-01-11 11:08:00,74.4,68.2,30.05,SW,215,9.0,12.0,81,0.00,,---,0.00,VWS V14.01,2013-01-11 17:08:00,
2013-01-11 11:13:00,74.5,67.9,30.05,South,183,6.0,14.0,80,0.00,,---,0.00,VWS V14.01,2013-01-11 17:13:00,
2013-01-11 11:18:00,74.5,68.3,30.05,South,183,3.0,14.0,81,0.00,,---,0.00,VWS V14.01,2013-01-11 17:18:00,
2013-01-11 11:23:00,74.7,68.8,30.05,South,188,14.0,14.0,82,0.00,,---,0.00,VWS V14.01,2013-01-11 17:23:00,
2013-01-11 11:28:00,74.5,68.7,30.05,South,169,7.0,16.0,82,0.00,,---,0.00,VWS V14.01,2013-01-11 17:28:00,
2013-01-11 11:33:00,74.4,68.6,30.05,SSW,196,7.0,12.0,82,0.00,,---,0.00,VWS V14.01,2013-01-11 17:33:00,
2013-01-11 11:38:00,74.4,68.9,30.04,South,182,4.0,15.0,83,0.00,,---,0.00,VWS V14.01,2013-01-11 17:38:00,
2013-01-11 11:43:00,74.1,68.3,30.04,SSW,193,5.0,15.0,82,0.00,,---,0.00,VWS V14.01,2013-01-11 17:43:00,
2013-01-11 11:48:00,73.9,68.8,30.04,South,180,4.0,15.0,84,0.00,,---,0.00,VWS V14.01,2013-01-11 17:48:00,
2013-01-11 11:53:00,74.1,69.0,30.03,SSW,195,2.0,15.0,84,0.00,,---,0.00,VWS V14.01,2013-01-11 17:53:00,
2013-01-11 11:58:00,74.1,68.3,30.03,South,178,5.0,15.0,82,0.00,,---,0.00,VWS V14.01,2013-01-11 17:58:00,
2013-01-11 12:03:00,74.0,68.5,30.03,South,189,5.0,13.0,83,0.00,,---,0.00,VWS V14.01,2013-01-11 18:03:00,
2013-01-11 12:08:00,74.3,68.8,30.03,South,186,7.0,13.0,83,0.00,,---,0.00,VWS V14.01,2013-01-11 18:08:00,
2013-01-11 12:13:00,74.3,68.4,30.02,South,182,8.0,15.0,82,0.00,,---,0.00,VWS V14.01,2013-01-11 18:13:00,
2013-01-11 12:18:00,74.4,68.9,30.02,South,187,5.0,15.0,83,0.00,,---,0.00,VWS V14.01,2013-01-11 18:18:00,
2013-01-11 12:23:00,74.5,68.7,30.02,South,175,3.0,15.0,82,0.00,,---,0.00,VWS V14.01,2013-01-11 18:23:00,
2013-01-11 12:28:00,74.6,69.1,30.01,South,182,10.0,15.0,83,0.00,,---,0.00,VWS V14.01,2013-01-11 18:28:00,
2013-01-11 12:33:00,74.4,68.6,30.01,South,174,6.0,13.0,82,0.00,,---,0.00,VWS V14.01,2013-01-11 18:33:00,
2013-01-11 12:38:00,74.5,68.7,30.01,South,188,1.0,13.0,82,0.00,,---,0.00,VWS V14.01,2013-01-11 18:38:00,
2013-01-11 12:43:00,74.6,69.1,30.01,SSE,150,6.0,14.0,83,0.00,,---,0.00,VWS V14.01,2013-01-11 18:43:00,
2013-01-11 12:48:00,74.4,68.6,30.01,South,177,6.0,14.0,82,0.00,,---,0.00,VWS V14.01,2013-01-11 18:48:00,
2013-01-11 12:53:00,74.1,68.3,30.01,South,178,9.0,16.0,82,0.00,,---,0.00,VWS V14.01,2013-01-11 18:53:00,
2013-01-11 12:58:00,73.7,68.2,30.00,SSW,200,7.0,16.0,83,0.00,,---,0.00,VWS V14.01,2013-01-11 18:58:00,
2013-01-11 13:03:00,73.6,68.1,30.00,South,184,2.0,10.0,83,0.00,,---,0.00,VWS V14.01,2013-01-11 19:03:00,
2013-01-11 13:08:00,73.5,68.0,30.00,SSE,156,2.0,12.0,83,0.00,,---,0.00,VWS V14.01,2013-01-11 19:08:00,
2013-01-11 13:13:00,73.4,68.3,30.00,South,177,4.0,12.0,84,0.00,,---,0.00,VWS V14.01,2013-01-11 19:13:00,
2013-01-11 13:18:00,73.4,68.3,30.00,South,174,4.0,12.0,84,0.00,,---,0.00,VWS V14.01,2013-01-11 19:18:00,
2013-01-11 13:23:00,73.6,68.5,30.00,South,169,3.0,14.0,84,0.00,,---,0.00,VWS V14.01,2013-01-11 19:23:00,
2013-01-11 13:28:00,73.9,68.4,30.00,SSW,209,11.0,14.0,83,0.00,,---,0.00,VWS V14.01,2013-01-11 19:28:00,
2013-01-11 13:33:00,74.2,68.7,29.99,South,169,10.0,14.0,83,0.00,,---,0.00,VWS V14.01,2013-01-11 19:33:00,
2013-01-11 13:38:00,74.1,68.3,29.99,SSW,193,4.0,16.0,82,0.00,,---,0.00,VWS V14.01,2013-01-11 19:38:00,
2013-01-11 13:43:00,74.4,68.9,29.99,South,189,8.0,16.0,83,0.00,,---,0.00,VWS V14.01,2013-01-11 19:43:00,
2013-01-11 13:48:00,74.7,68.8,29.98,South,191,3.0,16.0,82,0.00,,---,0.00,VWS V14.01,2013-01-11 19:48:00,
2013-01-11 13:53:00,74.9,69.0,29.98,SSE,147,6.0,17.0,82,0.00,,---,0.00,VWS V14.01,2013-01-11 19:53:00,
2013-01-11 13:58:00,74.8,68.9,29.98,South,175,6.0,17.0,82,0.00,,---,0.00,VWS V14.01,2013-01-11 19:58:00,
2013-01-11 14:03:00,74.8,68.9,29.98,South,181,12.0,16.0,82,0.00,,---,0.00,VWS V14.01,2013-01-11 20:03:00,
2013-01-11 14:08:00,74.9,69.0,29.98,South,176,10.0,16.0,82,0.00,,---,0.00,VWS V14.01,2013-01-11 20:08:00,
2013-01-11 14:13:00,74.8,68.9,29.98,South,176,9.0,16.0,82,0.00,,---,0.00,VWS V14.01,2013-01-11 20:13:00,
2013-01-11 14:18:00,74.9,69.0,29.99,SSW,196,9.0,16.0,82,0.00,,---,0.00,VWS V14.01,2013-01-11 20:18:00,
2013-01-11 14:23:00,74.9,69.0,29.98,SE,124,4.0,16.0,82,0.00,,---,0.00,VWS V14.01,2013-01-11 20:23:00,
2013-01-11 14:28:00,75.0,69.1,29.99,WSW,248,6.0,16.0,82,0.00,,---,0.00,VWS V14.01,2013-01-11 20:28:00,
2013-01-11 14:33:00,74.8,68.9,29.99,South,178,6.0,11.0,82,0.00,,---,0.00,VWS V14.01,2013-01-11 20:33:00,
2013-01-11 14:38:00,74.7,69.2,29.99,South,186,6.0,12.0,83,0.00,,---,0.00,VWS V14.01,2013-01-11 20:38:00,
2013-01-11 14:43:00,74.7,69.2,29.99,SSW,212,8.0,14.0,83,0.00,,---,0.00,VWS V14.01,2013-01-11 20:43:00,
2013-01-11 14:48:00,74.7,69.2,29.99,South,169,2.0,14.0,83,0.00,,---,0.00,VWS V14.01,2013-01-11 20:48:00,
2013-01-11 14:53:00,74.5,68.7,29.99,SSW,193,6.0,19.0,82,0.00,,---,0.00,VWS V14.01,2013-01-11 20:53:00,
2013-01-11 14:58:00,74.2,68.7,29.99,SSE,149,10.0,19.0,83,0.00,,---,0.00,VWS V14.01,2013-01-11 20:58:00,
2013-01-11 15:03:00,73.9,69.1,29.99,SSW,193,2.0,9.0,85,0.00,,---,0.00,VWS V14.01,2013-01-11 21:03:00,
2013-01-11 15:08:00,73.9,69.1,29.99,SSE,147,3.0,14.0,85,0.00,,---,0.00,VWS V14.01,2013-01-11 21:08:00,
2013-01-11 15:13:00,74.0,69.2,29.99,SW,215,9.0,14.0,85,0.00,,---,0.00,VWS V14.01,2013-01-11 21:13:00,
2013-01-11 15:18:00,73.9,69.1,29.99,South,179,5.0,16.0,85,0.00,,---,0.00,VWS V14.01,2013-01-11 21:18:00,
2013-01-11 15:23:00,73.7,69.3,29.99,SW,223,5.0,16.0,86,0.00,,---,0.00,VWS V14.01,2013-01-11 21:23:00,
2013-01-11 15:28:00,73.5,69.1,29.99,SSE,165,5.0,16.0,86,0.00,,---,0.00,VWS V14.01,2013-01-11 21:28:00,
2013-01-11 15:33:00,73.2,69.1,29.99,SE,139,5.0,11.0,87,0.00,,---,0.00,VWS V14.01,2013-01-11 21:33:00,
2013-01-11 15:38:00,73.1,69.3,29.99,SW,215,5.0,13.0,88,0.00,,---,0.00,VWS V14.01,2013-01-11 21:38:00,
2013-01-11 15:43:00,73.1,69.3,29.99,South,180,5.0,13.0,88,0.00,,---,0.00,VWS V14.01,2013-01-11 21:43:00,
2013-01-11 15:48:00,72.9,69.1,29.99,SSE,154,3.0,13.0,88,0.00,,---,0.00,VWS V14.01,2013-01-11 21:48:00,
2013-01-11 15:53:00,72.8,69.4,29.99,South,172,5.0,13.0,89,0.00,,---,0.00,VWS V14.01,2013-01-11 21:53:00,
2013-01-11 15:58:00,72.8,69.4,29.99,South,188,4.0,13.0,89,0.00,,---,0.00,VWS V14.01,2013-01-11 21:58:00,
2013-01-11 16:03:00,72.7,69.3,29.99,SSW,196,4.0,12.0,89,0.00,,---,0.00,VWS V14.01,2013-01-11 22:03:00,
2013-01-11 16:08:00,72.7,69.3,29.99,SSW,196,12.0,15.0,89,0.00,,---,0.00,VWS V14.01,2013-01-11 22:08:00,
2013-01-11 16:13:00,72.6,69.5,29.99,South,186,7.0,15.0,90,0.00,,---,0.00,VWS V14.01,2013-01-11 22:13:00,
2013-01-11 16:18:00,72.6,69.5,29.99,SSE,161,4.0,15.0,90,0.00,,---,0.00,VWS V14.01,2013-01-11 22:18:00,
2013-01-11 16:23:00,72.4,69.3,29.99,South,182,7.0,20.0,90,0.00,,---,0.00,VWS V14.01,2013-01-11 22:23:00,
2013-01-11 16:28:00,72.2,69.1,29.99,South,178,6.0,20.0,90,0.00,,---,0.00,VWS V14.01,2013-01-11 22:28:00,
2013-01-11 16:33:00,72.1,69.3,29.99,SSW,209,0.0,13.0,91,0.00,,---,0.00,VWS V14.01,2013-01-11 22:33:00,
2013-01-11 16:38:00,71.9,69.1,30.00,South,172,3.0,13.0,91,0.00,,---,0.00,VWS V14.01,2013-01-11 22:38:00,
2013-01-11 16:43:00,71.7,68.9,30.00,South,190,3.0,13.0,91,0.00,,---,0.00,VWS V14.01,2013-01-11 22:43:00,
2013-01-11 16:48:00,71.5,69.1,30.00,South,184,9.0,13.0,92,0.00,,---,0.00,VWS V14.01,2013-01-11 22:48:00,
2013-01-11 16:53:00,71.2,68.8,30.00,SSE,168,3.0,13.0,92,0.00,,---,0.00,VWS V14.01,2013-01-11 22:53:00,
2013-01-11 16:58:00,71.1,68.7,30.00,SSE,159,6.0,14.0,92,0.00,,---,0.00,VWS V14.01,2013-01-11 22:58:00,
2013-01-11 17:03:00,71.0,68.9,30.00,South,174,3.0,10.0,93,0.00,,---,0.00,VWS V14.01,2013-01-11 23:03:00,
2013-01-11 17:08:00,71.0,68.9,30.00,SSW,209,7.0,11.0,93,0.00,,---,0.00,VWS V14.01,2013-01-11 23:08:00,
2013-01-11 17:13:00,70.9,68.8,30.00,South,170,4.0,12.0,93,0.00,,---,0.00,VWS V14.01,2013-01-11 23:13:00,
2013-01-11 17:18:00,70.8,68.7,30.00,SSE,166,5.0,15.0,93,0.00,,---,0.00,VWS V14.01,2013-01-11 23:18:00,
2013-01-11 17:23:00,70.7,68.9,30.00,SSE,165,8.0,15.0,94,0.00,,---,0.00,VWS V14.01,2013-01-11 23:23:00,
2013-01-11 17:28:00,70.7,68.9,30.00,SSW,202,5.0,15.0,94,0.00,,---,0.00,VWS V14.01,2013-01-11 23:28:00,
2013-01-11 17:33:00,70.6,68.8,30.00,South,181,2.0,10.0,94,0.00,,---,0.00,VWS V14.01,2013-01-11 23:33:00,
2013-01-11 17:38:00,70.6,68.8,30.00,SSE,150,6.0,11.0,94,0.00,,---,0.00,VWS V14.01,2013-01-11 23:38:00,
2013-01-11 17:43:00,70.6,68.8,30.00,South,190,1.0,12.0,94,0.00,,---,0.00,VWS V14.01,2013-01-11 23:43:00,
2013-01-11 17:48:00,70.7,68.9,30.00,South,188,10.0,16.0,94,0.00,,---,0.00,VWS V14.01,2013-01-11 23:48:00,
2013-01-11 17:53:00,70.7,68.9,30.00,SSW,200,11.0,16.0,94,0.00,,---,0.00,VWS V14.01,2013-01-11 23:53:00,
2013-01-11 17:58:00,70.8,69.0,30.00,South,173,6.0,16.0,94,0.00,,---,0.00,VWS V14.01,2013-01-11 23:58:00,
2013-01-11 18:03:00,70.8,69.0,30.00,SSE,165,3.0,13.0,94,0.00,,---,0.00,VWS V14.01,2013-01-12 00:03:00,
2013-01-11 18:08:00,70.8,69.0,30.00,South,187,10.0,13.0,94,0.00,,---,0.00,VWS V14.01,2013-01-12 00:08:00,
2013-01-11 18:13:00,70.8,69.0,30.01,South,169,4.0,13.0,94,0.00,,---,0.00,VWS V14.01,2013-01-12 00:13:00,
2013-01-11 18:18:00,70.8,69.0,30.01,SSE,151,5.0,13.0,94,0.00,,---,0.00,VWS V14.01,2013-01-12 00:18:00,
2013-01-11 18:23:00,70.8,69.0,30.01,South,169,6.0,13.0,94,0.00,,---,0.00,VWS V14.01,2013-01-12 00:23:00,
2013-01-11 18:28:00,70.8,69.0,30.01,SE,146,7.0,13.0,94,0.00,,---,0.00,VWS V14.01,2013-01-12 00:28:00,
2013-01-11 18:33:00,70.8,69.0,30.01,South,184,5.0,11.0,94,0.00,,---,0.00,VWS V14.01,2013-01-12 00:33:00,
2013-01-11 18:38:00,70.8,69.0,30.01,SE,138,7.0,11.0,94,0.00,,---,0.00,VWS V14.01,2013-01-12 00:38:00,
2013-01-11 18:43:00,70.8,69.0,30.01,SE,144,4.0,11.0,94,0.00,,---,0.00,VWS V14.01,2013-01-12 00:43:00,
2013-01-11 18:48:00,70.7,68.9,30.01,SE,125,5.0,11.0,94,0.00,,---,0.00,VWS V14.01,2013-01-12 00:48:00,
2013-01-11 18:53:00,70.7,68.9,30.01,SE,140,10.0,11.0,94,0.00,,---,0.00,VWS V14.01,2013-01-12 00:53:00,
2013-01-11 18:58:00,70.8,69.0,30.01,South,177,3.0,11.0,94,0.00,,---,0.00,VWS V14.01,2013-01-12 00:58:00,
2013-01-11 19:03:00,70.7,68.9,30.01,SSW,204,3.0,7.0,94,0.00,,---,0.00,VWS V14.01,2013-01-12 01:03:00,
2013-01-11 19:08:00,70.6,68.8,30.01,SSE,163,3.0,8.0,94,0.00,,---,0.00,VWS V14.01,2013-01-12 01:08:00,
2013-01-11 19:13:00,70.4,68.6,30.01,South,174,6.0,10.0,94,0.00,,---,0.00,VWS V14.01,2013-01-12 01:13:00,
2013-01-11 19:18:00,70.2,68.4,30.01,South,173,5.0,10.0,94,0.00,,---,0.00,VWS V14.01,2013-01-12 01:18:00,
2013-01-11 19:23:00,70.2,68.4,30.01,South,180,2.0,12.0,94,0.00,,---,0.00,VWS V14.01,2013-01-12 01:23:00,
2013-01-11 19:28:00,70.2,68.7,30.01,SSE,150,4.0,15.0,95,0.00,,---,0.00,VWS V14.01,2013-01-12 01:28:00,
2013-01-11 19:33:00,70.1,68.3,30.01,South,173,6.0,11.0,94,0.00,,---,0.00,VWS V14.01,2013-01-12 01:33:00,
2013-01-11 19:38:00,70.0,68.2,30.02,SSE,155,4.0,12.0,94,0.00,,---,0.00,VWS V14.01,2013-01-12 01:38:00,
2013-01-11 19:43:00,70.0,68.2,30.02,SW,223,5.0,12.0,94,0.00,,---,0.00,VWS V14.01,2013-01-12 01:43:00,
2013-01-11 19:48:00,69.9,68.1,30.02,South,180,7.0,12.0,94,0.00,,---,0.00,VWS V14.01,2013-01-12 01:48:00,
2013-01-11 19:53:00,69.9,68.4,30.02,South,178,3.0,12.0,95,0.00,,---,0.00,VWS V14.01,2013-01-12 01:53:00,
2013-01-11 19:58:00,69.9,68.4,30.02,SSW,194,4.0,12.0,95,0.00,,---,0.00,VWS V14.01,2013-01-12 01:58:00,
2013-01-11 20:03:00,69.8,68.3,30.02,SSE,150,1.0,10.0,95,0.00,,---,0.00,VWS V14.01,2013-01-12 02:03:00,
2013-01-11 20:08:00,69.8,68.3,30.02,SSE,165,2.0,10.0,95,0.00,,---,0.00,VWS V14.01,2013-01-12 02:08:00,
2013-01-11 20:13:00,69.7,68.2,30.02,South,172,4.0,10.0,95,0.00,,---,0.00,VWS V14.01,2013-01-12 02:13:00,
2013-01-11 20:18:00,69.7,68.2,30.02,SSW,213,2.0,11.0,95,0.00,,---,0.00,VWS V14.01,2013-01-12 02:18:00,
2013-01-11 20:23:00,69.6,68.1,30.02,SE,144,4.0,11.0,95,0.00,,---,0.00,VWS V14.01,2013-01-12 02:23:00,
2013-01-11 20:28:00,69.5,68.0,30.02,SSE,147,0.0,11.0,95,0.00,,---,0.00,VWS V14.01,2013-01-12 02:28:00,
2013-01-11 20:33:00,69.4,67.9,30.01,South,180,5.0,9.0,95,0.00,,---,0.00,VWS V14.01,2013-01-12 02:33:00,
2013-01-11 20:38:00,69.4,67.9,30.02,SSE,165,6.0,18.0,95,0.00,,---,0.00,VWS V14.01,2013-01-12 02:38:00,
2013-01-11 20:43:00,69.4,67.9,30.01,South,173,0.0,18.0,95,0.00,,---,0.00,VWS V14.01,2013-01-12 02:43:00,
2013-01-11 20:48:00,69.4,67.9,30.01,South,173,4.0,18.0,95,0.00,,---,0.00,VWS V14.01,2013-01-12 02:48:00,
2013-01-11 20:53:00,69.4,67.9,30.02,SSE,153,6.0,18.0,95,0.00,,---,0.00,VWS V14.01,2013-01-12 02:53:00,
2013-01-11 20:58:00,69.5,68.0,30.02,SSE,157,6.0,18.0,95,0.00,,---,0.00,VWS V14.01,2013-01-12 02:58:00,
2013-01-11 21:03:00,69.5,68.0,30.02,SSE,157,3.0,7.0,95,0.00,,---,0.00,VWS V14.01,2013-01-12 03:03:00,
2013-01-11 21:08:00,69.5,68.0,30.02,South,173,3.0,7.0,95,0.00,,---,0.00,VWS V14.01,2013-01-12 03:08:00,
2013-01-11 21:13:00,69.6,68.1,30.02,SSW,192,5.0,9.0,95,0.00,,---,0.00,VWS V14.01,2013-01-12 03:13:00,
2013-01-11 21:18:00,69.7,68.5,30.02,SE,140,9.0,10.0,96,0.00,,---,0.00,VWS V14.01,2013-01-12 03:18:00,
2013-01-11 21:23:00,69.7,68.2,30.03,SSE,168,10.0,12.0,95,0.00,,---,0.00,VWS V14.01,2013-01-12 03:23:00,
2013-01-11 21:28:00,69.7,68.2,30.03,SSE,148,6.0,15.0,95,0.00,,---,0.00,VWS V14.01,2013-01-12 03:28:00,
2013-01-11 21:33:00,69.8,68.3,30.02,SSW,192,14.0,14.0,95,0.00,,---,0.00,VWS V14.01,2013-01-12 03:33:00,
2013-01-11 21:38:00,69.7,68.2,30.02,South,185,3.0,15.0,95,0.00,,---,0.00,VWS V14.01,2013-01-12 03:38:00,
2013-01-11 21:43:00,69.6,68.1,30.02,SSE,156,4.0,15.0,95,0.00,,---,0.00,VWS V14.01,2013-01-12 03:43:00,
2013-01-11 21:48:00,69.5,68.0,30.01,SSE,149,5.0,15.0,95,0.00,,---,0.00,VWS V14.01,2013-01-12 03:48:00,
2013-01-11 21:53:00,69.3,67.8,30.01,SSE,153,5.0,15.0,95,0.00,,---,0.00,VWS V14.01,2013-01-12 03:53:00,
2013-01-11 21:58:00,69.2,67.7,30.01,SSW,207,6.0,15.0,95,0.00,,---,0.00,VWS V14.01,2013-01-12 03:58:00,
2013-01-11 22:03:00,69.1,67.6,30.02,SSW,198,5.0,16.0,95,0.00,,---,0.00,VWS V14.01,2013-01-12 04:03:00,
2013-01-11 22:08:00,69.0,67.5,30.02,South,178,3.0,16.0,95,0.00,,---,0.00,VWS V14.01,2013-01-12 04:08:00,
2013-01-11 22:13:00,69.0,67.5,30.02,South,170,6.0,16.0,95,0.00,,---,0.00,VWS V14.01,2013-01-12 04:13:00,
2013-01-11 22:18:00,68.9,67.4,30.02,South,180,9.0,16.0,95,0.00,,---,0.00,VWS V14.01,2013-01-12 04:18:00,
2013-01-11 22:23:00,68.8,67.3,30.02,ESE,108,5.0,16.0,95,0.00,,---,0.00,VWS V14.01,2013-01-12 04:23:00,
2013-01-11 22:28:00,68.7,67.2,30.03,SSW,192,10.0,16.0,95,0.00,,---,0.00,VWS V14.01,2013-01-12 04:28:00,
2013-01-11 22:33:00,68.6,67.1,30.03,SSE,167,3.0,7.0,95,0.00,,---,0.00,VWS V14.01,2013-01-12 04:33:00,
2013-01-11 22:38:00,68.5,67.0,30.03,SSE,166,6.0,10.0,95,0.00,,---,0.00,VWS V14.01,2013-01-12 04:38:00,
2013-01-11 22:43:00,68.4,66.9,30.03,SSE,159,4.0,12.0,95,0.00,,---,0.00,VWS V14.01,2013-01-12 04:43:00,
2013-01-11 22:48:00,68.3,66.8,30.02,SSE,155,12.0,12.0,95,0.00,,---,0.00,VWS V14.01,2013-01-12 04:48:00,
2013-01-11 22:53:00,68.2,67.0,30.02,SE,127,7.0,12.0,96,0.00,,---,0.00,VWS V14.01,2013-01-12 04:53:00,
2013-01-11 22:58:00,68.1,66.6,30.02,South,169,5.0,12.0,95,0.00,,---,0.00,VWS V14.01,2013-01-12 04:58:00,
2013-01-11 23:00:00,68.1,66.9,30.02,South,178,7.0,7.0,96,0.00,,---,0.00,VWS V14.01,2013-01-12 05:00:00,
2013-01-11 23:02:00,68.1,66.9,30.02,SSE,150,7.0,17.0,96,0.00,,---,0.00,VWS V14.01,2013-01-12 05:02:00,
2013-01-11 23:07:00,68.1,66.9,30.03,South,173,10.0,17.0,96,0.00,,---,0.00,VWS V14.01,2013-01-12 05:07:00,
2013-01-11 23:12:00,68.2,67.0,30.02,SSE,157,6.0,17.0,96,0.00,,---,0.00,VWS V14.01,2013-01-12 05:12:00,
2013-01-11 23:17:00,68.2,67.0,30.02,SSE,148,6.0,17.0,96,0.00,,---,0.00,VWS V14.01,2013-01-12 05:17:00,
2013-01-11 23:22:00,68.3,67.1,30.02,East,97,2.0,17.0,96,0.00,,---,0.00,VWS V14.01,2013-01-12 05:22:00,
2013-01-11 23:27:00,68.3,67.1,30.02,SSE,163,4.0,17.0,96,0.00,,---,0.00,VWS V14.01,2013-01-12 05:27:00,
2013-01-11 23:32:00,68.4,67.2,30.02,SSE,153,3.0,11.0,96,0.00,,---,0.00,VWS V14.01,2013-01-12 05:32:00,
2013-01-11 23:37:00,68.4,67.2,30.02,SSW,200,6.0,12.0,96,0.00,,---,0.00,VWS V14.01,2013-01-12 05:37:00,
2013-01-11 23:42:00,68.5,67.3,30.02,SSW,198,12.0,14.0,96,0.00,,---,0.00,VWS V14.01,2013-01-12 05:42:00,
2013-01-11 23:47:00,68.5,67.3,30.01,SSE,165,4.0,14.0,96,0.00,,---,0.00,VWS V14.01,2013-01-12 05:47:00,
2013-01-11 23:52:00,68.5,67.3,30.01,South,183,7.0,15.0,96,0.00,,---,0.00,VWS V14.01,2013-01-12 05:52:00,
2013-01-11 23:57:00,68.6,67.4,30.01,SSE,167,11.0,15.0,96,0.00,,---,0.00,VWS V14.01,2013-01-12 05:57:00,